This demonstration page uses our WeatherBlox Daily Observations layout. Learn more.

Left ArrowRight Arrow

40.92945, -100.16068

Hourly Observations for May 6, 2021

Temp ( °F °C ) Dew Point ( °F °C ) Humidity (%) Winds ( mph kmh ) Pressure ( in mb ) Visibility ( mi km ) Precip ( " mm )
12:15 am 00:15 Clear 49 9.3 39 3.9 69 69 NNW 9 15 30.25 1024 10 16.0934 N/A
12:35 am 00:35 Clear 48 9.1 39 4.1 71 71 N 8 13 30.26 1025 10 16.0934 N/A
12:55 am 00:55 Clear 49 9.2 39 4.1 71 71 N 9 15 30.27 1025 10 16.0934 N/A
1:15 am 01:15 Clear 48 8.7 40 4.2 74 74 N 10 17 30.27 1025 10 16.0934 N/A
1:35 am 01:35 Clear 47 8.1 39 4 76 76 N 9 15 30.29 1026 10 16.0934 N/A
1:55 am 01:55 Clear 45 7.4 39 4 79 79 N 6 9 30.31 1026 10 16.0934 N/A
2:15 am 02:15 Clear 44 6.9 39 3.8 81 81 NNW 5 7 30.32 1027 10 16.0934 N/A
2:35 am 02:35 Clear 43 6 38 3.5 84 84 WNW 3 6 30.33 1027 10 16.0934 N/A
2:55 am 02:55 Clear 43 6 38 3.4 84 84 NNW 6 9 30.34 1027 10 16.0934 N/A
3:15 am 03:15 Clear 43 5.9 38 3.5 85 85 N 7 11 30.34 1027 10 16.0934 N/A
3:35 am 03:35 Clear 42 5.3 38 3.2 86 86 N 8 13 30.36 1028 10 16.0934 N/A
3:55 am 03:55 Clear 40 4.7 37 2.9 88 88 NNW 7 11 30.37 1028 10 16.0934 N/A
4:15 am 04:15 Clear 39 3.9 36 2.4 90 90 NNW 7 11 30.37 1028 10 16.0934 N/A
4:35 am 04:35 Partly Cloudy 39 3.7 36 2.4 91 91 NW 9 15 30.38 1029 10 16.0934 N/A
4:55 am 04:55 Partly Cloudy 40 4.4 37 3 91 91 NNW 7 11 30.38 1029 10 16.0934 N/A
5:15 am 05:15 Clear 39 3.7 37 2.5 92 92 NW 8 13 30.39 1029 10 16.0934 N/A
5:35 am 05:35 Clear 37 3 36 2 93 93 NW 7 11 30.4 1029 10 16.0934 N/A
5:55 am 05:55 Clear 37 3 36 2 93 93 NW 6 9 30.4 1029 10 16.0934 N/A
6:15 am 06:15 Partly Cloudy 37 2.5 35 1.5 93 93 WNW 3 6 30.41 1030 10 16.0934 N/A
6:35 am 06:35 Partly Cloudy 36 2.4 35 1.5 94 94 WNW 6 9 30.41 1030 7 11.26538 N/A
6:55 am 06:55 Partly Cloudy 36 2 34 1.1 94 94 NW 7 11 30.43 1030 7 11.26538 N/A
7:15 am 07:15 Partly Cloudy 39 3.7 37 2.6 93 93 NW 7 11 30.42 1030 10 16.0934 N/A
7:35 am 07:35 Partly Cloudy 40 4.3 37 3 91 91 NW 5 7 30.42 1030 10 16.0934 N/A
7:55 am 07:55 Sunny 42 5.3 38 3.2 86 86 NW 6 9 30.42 1030 10 16.0934 N/A
8:15 am 08:15 Sunny 43 6 38 3.4 84 84 NW 6 9 30.41 1030 10 16.0934 N/A
8:35 am 08:35 Sunny 44 6.5 37 2.9 78 78 WNW 6 9 30.41 1030 10 16.0934 N/A
8:55 am 08:55 Sunny 45 7 37 2.6 74 74 NNW 5 7 30.41 1030 10 16.0934 N/A
9:15 am 09:15 Sunny 46 7.7 37 2.9 72 72 NNW 3 6 30.4 1030 10 16.0934 N/A
9:35 am 09:35 Sunny 47 8.6 37 2.8 67 67 NNW 6 9 30.39 1029 10 16.0934 N/A
9:55 am 09:55 Sunny 49 9.3 36 2.3 62 62 N N/A 30.39 1029 10 16.0934 N/A
10:15 am 10:15 Sunny 50 10.2 35 1.9 57 57 NW 5 7 30.37 1028 10 16.0934 N/A
10:35 am 10:35 Sunny 52 10.9 34 1.2 51 51 N N/A 30.36 1028 10 16.0934 N/A
10:55 am 10:55 Sunny 53 11.7 33 0.7 47 47 N N/A 30.36 1028 10 16.0934 N/A
11:15 am 11:15 Sunny 55 13 33 0.7 43 43 SSE 3 6 30.34 1028 10 16.0934 N/A
11:35 am 11:35 Sunny 56 13.4 31 -0.7 38 38 E 3 6 30.33 1027 10 16.0934 N/A
11:55 am 11:55 Sunny 57 14.1 31 -0.7 36 36 NNE 3 6 30.32 1027 10 16.0934 N/A
12:15 pm 12:15 Sunny 57 14.1 27 -2.6 32 32 N N/A 30.31 1027 10 16.0934 N/A
12:35 pm 12:35 Sunny 59 15.1 28 -2 31 31 ESE 6 9 30.29 1026 10 16.0934 N/A
12:55 pm 12:55 Sunny 60 15.6 27 -2.7 29 29 E 6 9 30.28 1025 10 16.0934 N/A
1:15 pm 13:15 Sunny 60 15.3 26 -3.1 28 28 N N/A 30.27 1025 10 16.0934 N/A
1:35 pm 13:35 Sunny 60 15.8 27 -3 28 28 N N/A 30.27 1025 10 16.0934 N/A
1:55 pm 13:55 Sunny 62 16.8 27 -2.8 26 26 NNW 3 6 30.25 1024 10 16.0934 N/A
2:15 pm 14:15 Mostly Cloudy 62 16.9 27 -2.8 26 26 N N/A 30.24 1024 10 16.0934 N/A
2:35 pm 14:35 Partly Cloudy 64 17.6 28 -2.4 26 26 WNW 8 13 30.22 1023 10 16.0934 N/A
2:55 pm 14:55 Sunny 64 18 28 -2.5 25 25 WSW 6 9 30.2 1023 10 16.0934 N/A
3:15 pm 15:15 Sunny 65 18.6 28 -2.4 24 24 NW 8 13 30.19 1022 10 16.0934 N/A
3:35 pm 15:35 Partly Cloudy 67 19.3 29 -1.7 24 24 WSW 9 15 30.18 1022 10 16.0934 N/A
3:55 pm 15:55 Partly Cloudy 66 18.9 29 -1.8 25 25 W 3 6 30.17 1022 10 16.0934 N/A
4:15 pm 16:15 Mostly Cloudy 65 18.2 29 -1.4 27 27 S 7 11 30.17 1022 10 16.0934 N/A
4:35 pm 16:35 Cloudy 67 19.2 31 -0.6 26 26 SSW 10 17 30.16 1021 10 16.0934 N/A
4:55 pm 16:55 Cloudy 66 19 31 -0.7 27 27 WSW 13 20 30.15 1021 10 16.0934 N/A
5:15 pm 17:15 Mostly Cloudy 65 18.6 31 -0.5 28 28 WSW 6 9 30.14 1021 10 16.0934 N/A
5:35 pm 17:35 Mostly Cloudy 68 19.9 33 0.8 28 28 SSW 10 17 30.11 1020 10 16.0934 N/A
5:55 pm 17:55 Partly Cloudy 67 19.2 35 1.6 31 31 WSW 8 13 30.12 1020 10 16.0934 N/A
6:15 pm 18:15 Mostly Cloudy 68 19.8 35 1.6 30 30 W 14 22 30.1 1019 10 16.0934 N/A
6:35 pm 18:35 Partly Cloudy 68 19.8 35 1.8 30 30 SW 9 15 30.1 1019 10 16.0934 N/A
6:55 pm 18:55 Mostly Cloudy 68 19.8 36 2.1 31 31 SSW 7 11 30.09 1019 10 16.0934 N/A
7:15 pm 19:15 Cloudy 67 19.6 35 1.9 31 31 WSW 12 19 30.09 1019 10 16.0934 N/A
7:35 pm 19:35 Mostly Cloudy 67 19.6 36 2 31 31 SW 10 17 30.09 1019 10 16.0934 N/A
7:55 pm 19:55 Partly Cloudy 66 18.9 36 2 33 33 SW 8 13 30.09 1019 10 16.0934 N/A
8:15 pm 20:15 Sunny 64 18 37 2.5 36 36 SW 9 15 30.09 1019 10 16.0934 N/A
8:35 pm 20:35 Sunny 63 17 37 2.8 39 39 SSW 8 13 30.1 1019 10 16.0934 N/A
8:55 pm 20:55 Clear 61 16.1 38 3.1 42 42 SSW 7 11 30.11 1019 10 16.0934 N/A
9:15 pm 21:15 Clear 58 14.4 38 3.4 48 48 SSW 7 11 30.13 1020 10 16.0934 N/A
9:35 pm 21:35 Clear 57 13.9 38 3.6 50 50 SSW 6 9 30.14 1021 10 16.0934 N/A
9:55 pm 21:55 Clear 56 13.4 39 3.7 52 52 SSW 7 11 30.14 1021 10 16.0934 N/A
10:15 pm 22:15 Clear 54 12.2 39 3.9 57 57 SSW 7 11 30.15 1021 10 16.0934 N/A
10:35 pm 22:35 Clear 55 12.8 38 3.2 52 52 SSW 7 11 30.15 1021 10 16.0934 N/A
10:55 pm 22:55 Clear 55 13 37 2.8 50 50 SSW 7 11 30.13 1020 10 16.0934 N/A
11:15 pm 23:15 Clear 56 13.1 37 3 51 51 SSW 9 15 30.13 1020 10 16.0934 N/A
11:35 pm 23:35 Clear 56 13.6 37 2.5 47 47 SSW 12 19 30.13 1020 10 16.0934 N/A
11:55 pm 23:55 Clear 56 13.5 36 2.4 47 47 SSW 9 15 30.13 1020 10 16.0934 N/A

Powered by AerisWeather